TimeCDT,TemperatureF,Dew PointF,Humidity,Sea Level PressureIn,VisibilityMPH,Wind Direction,Wind SpeedMPH,Gust SpeedMPH,PrecipitationIn,Events,Conditions,WindDirDegrees,DateUTC
12:53 AM,45.0,36.0,71,29.91,10.0,Calm,Calm,-,N/A,,Clear,0,2012-10-03 05:53:00
1:53 AM,43.0,34.0,71,29.91,9.0,Calm,Calm,-,N/A,,Clear,0,2012-10-03 06:53:00
2:53 AM,39.9,30.0,68,29.92,8.0,Calm,Calm,-,N/A,,Clear,0,2012-10-03 07:53:00
3:53 AM,42.1,32.0,67,29.91,8.0,Calm,Calm,-,N/A,,Clear,0,2012-10-03 08:53:00
4:53 AM,37.9,28.9,70,29.92,5.0,Calm,Calm,-,N/A,,Haze,0,2012-10-03 09:53:00
5:53 AM,37.9,34.0,86,29.93,8.0,Calm,Calm,-,N/A,,Clear,0,2012-10-03 10:53:00
6:53 AM,36.0,30.9,82,29.94,9.0,Calm,Calm,-,N/A,,Clear,0,2012-10-03 11:53:00
7:53 AM,41.0,34.0,76,29.96,4.0,Calm,Calm,-,N/A,,Haze,0,2012-10-03 12:53:00
8:53 AM,51.1,41.0,68,29.96,5.0,Calm,Calm,-,N/A,,Haze,0,2012-10-03 13:53:00
9:53 AM,62.1,46.0,56,29.95,8.0,South,9.2,-,N/A,,Clear,170,2012-10-03 14:53:00
10:53 AM,69.1,44.1,40,29.94,9.0,South,8.1,-,N/A,,Clear,180,2012-10-03 15:53:00
11:53 AM,73.0,42.1,33,29.93,10.0,South,9.2,-,N/A,,Clear,170,2012-10-03 16:53:00
12:53 PM,75.9,39.9,27,29.90,10.0,SSE,9.2,18.4,N/A,,Clear,150,2012-10-03 17:53:00
1:53 PM,77.0,39.9,26,29.88,10.0,South,16.1,20.7,N/A,,Clear,180,2012-10-03 18:53:00
2:53 PM,78.1,39.9,25,29.86,10.0,South,15.0,23.0,N/A,,Clear,180,2012-10-03 19:53:00
3:53 PM,78.1,39.9,25,29.85,10.0,South,17.3,24.2,N/A,,Clear,180,2012-10-03 20:53:00
4:53 PM,77.0,39.0,25,29.85,10.0,SSE,13.8,23.0,N/A,,Clear,160,2012-10-03 21:53:00
5:53 PM,73.9,39.9,29,29.86,10.0,South,15.0,-,N/A,,Clear,170,2012-10-03 22:53:00
6:53 PM,68.0,41.0,37,29.88,10.0,SSE,8.1,-,N/A,,Clear,160,2012-10-03 23:53:00
7:53 PM,62.1,39.9,44,29.89,9.0,SSE,6.9,-,N/A,,Clear,150,2012-10-04 00:53:00
8:53 PM,55.0,39.9,57,29.91,6.0,SSE,4.6,-,N/A,,Haze,160,2012-10-04 01:53:00
9:53 PM,54.0,39.9,59,29.91,9.0,SSE,5.8,-,N/A,,Clear,150,2012-10-04 02:53:00
10:53 PM,50.0,39.9,68,29.91,8.0,SSE,5.8,-,N/A,,Clear,160,2012-10-04 03:53:00
11:53 PM,51.1,41.0,68,29.90,9.0,South,8.1,-,N/A,,Clear,170,2012-10-04 04:53:00